GW0776 Weather Reports


Display with metric or nautical units.
time (UTC)temp
F
wind
direction
speed
MPH
gust
MPH
rain 1hr
in
rain 24hr
in
rain mn
in
humidity
%
barometer
mb
20260510061011 74 177 0.0 0.0 0.00 0.00 0.00 91 1011.9
20260510060010 74 177 0.0 0.0 0.00 0.00 0.00 91 1012.0
20260510055010 74 177 0.0 1.0 0.00 0.00 0.00 91 1012.0
20260510054510 74 158 0.0 2.0 0.00 0.00 0.00 91 1011.9
20260510054010 74 158 0.0 2.0 0.00 0.00 0.00 91 1012.0
20260510053510 74 109 0.0 1.0 0.00 0.00 0.00 90 1012.0
20260510053010 74 103 0.0 1.0 0.00 0.00 0.00 90 1011.8
20260510052510 74 103 0.0 6.0 0.00 0.00 0.00 90 1012.0
20260510052010 74 103 0.0 7.0 0.00 0.00 0.00 90 1012.1
20260510051510 74 129 0.0 7.0 0.00 0.00 0.00 90 1012.1
20260510050510 74 104 0.0 2.0 0.00 0.00 0.00 89 1012.2
20260510050010 74 139 1.0 3.0 0.00 0.00 0.00 89 1012.1
20260510045510 74 141 0.0 4.0 0.00 0.00 0.00 88 1011.9
20260510045010 74 163 0.0 5.0 0.00 0.00 0.00 87 1012.2
20260510044510 74 125 0.0 5.0 0.00 0.00 0.00 86 1012.2
20260510043510 74 81 2.0 4.0 0.00 0.00 0.00 85 1012.4
20260510042510 74 140 2.0 6.0 0.00 0.00 0.00 85 1012.5
20260510041511 74 136 1.0 6.0 0.00 0.00 0.00 84 1012.5
20260510041011 74 146 2.0 6.0 0.00 0.00 0.00 83 1012.4
20260510040511 74 108 1.0 6.0 0.00 0.00 0.00 83 1012.5
20260510040011 74 78 3.0 6.0 0.00 0.00 0.00 83 1012.4
20260510035511 74 109 0.0 3.0 0.00 0.00 0.00 83 1012.4
20260510034511 75 143 2.0 4.0 0.00 0.00 0.00 82 1012.5
20260510034011 75 156 0.0 9.0 0.00 0.00 0.00 81 1012.3
20260510033511 75 170 1.0 9.0 0.00 0.00 0.00 80 1012.4
20260510033011 76 104 1.0 7.0 0.00 0.00 0.00 79 1012.4
20260510032011 76 132 3.0 5.0 0.00 0.00 0.00 77 1012.2
20260510031511 76 180 2.0 6.0 0.00 0.00 0.00 77 1012.4
20260510031011 76 90 2.0 8.0 0.00 0.00 0.00 76 1012.7
20260510030511 76 149 4.0 10.0 0.00 0.00 0.00 76 1012.9
20260510025511 76 42 0.0 12.0 0.00 0.00 0.00 75 1012.7
20260510025011 77 42 3.0 12.0 0.00 0.00 0.00 75 1012.6
20260510024511 77 140 7.0 12.0 0.00 0.00 0.00 75 1012.2
20260510024011 78 170 2.0 15.0 0.00 0.00 0.00 76 1012.2
20260510023511 79 122 11.0 15.0 0.00 0.00 0.00 79 1012.0
20260510022511 80 139 3.0 17.0 0.00 0.00 0.00 84 1011.7
20260510022011 79 113 6.0 7.0 0.00 0.00 0.00 81 1011.4
20260510021511 79 136 0.0 6.0 0.00 0.00 0.00 80 1011.2
20260510021011 79 148 2.0 3.0 0.00 0.00 0.00 79 1011.0
20260510020011 79 140 0.0 4.0 0.00 0.00 0.00 77 1010.5
20260510015011 80 99 1.0 6.0 0.00 0.00 0.00 75 1009.9
20260510014510 80 131 3.0 2.0 0.00 0.00 0.00 74 1009.7
20260510013510 80 150 0.0 4.0 0.00 0.00 0.00 73 1009.8
20260510013010 81 156 1.0 2.0 0.00 0.00 0.00 72 1009.6
20260510012511 82 214 0.0 1.0 0.00 0.00 0.00 71 1009.5
20260510012011 82 214 0.0 2.0 0.00 0.00 0.00 70 1009.6
20260510011511 83 251 1.0 4.0 0.00 0.00 0.00 70 1009.5
20260510011011 84 300 0.0 8.0 0.00 0.00 0.00 68 1009.6
20260510010510 84 217 1.0 8.0 0.00 0.00 0.00 66 1009.6
20260510010010 85 248 0.0 3.0 0.00 0.00 0.00 64 1009.4
20260510005510 85 192 0.0 4.0 0.00 0.00 0.00 65 1009.3
20260510005010 85 283 0.0 4.0 0.00 0.00 0.00 67 1009.1
20260510004511 86 134 1.0 4.0 0.00 0.00 0.00 67 1008.9
20260510004011 86 154 0.0 0.0 0.00 0.00 0.00 72 1009.1
20260510003511 86 129 0.0 3.0 0.00 0.00 0.00 70 1008.7
20260510003011 86 125 0.0 4.0 0.00 0.00 0.00 70 1008.8
20260510002510 86 124 0.0 4.0 0.00 0.00 0.00 69 1008.8
20260510002010 87 129 2.0 4.0 0.00 0.00 0.00 68 1008.8
20260510001510 87 120 1.0 3.0 0.00 0.00 0.00 68 1008.7
20260510000510 87 125 3.0 4.0 0.00 0.00 0.00 68 1008.8
20260510000010 87 140 0.0 0.0 0.00 0.00 0.00 68 1008.6
20260509235010 87 121 0.0 4.0 0.00 0.00 0.00 67 1008.6
20260509234010 87 112 0.0 3.0 0.00 0.00 0.00 67 1008.5
20260509233510 88 120 0.0 3.0 0.00 0.00 0.00 67 1008.5
20260509233010 87 117 0.0 3.0 0.00 0.00 0.00 67 1008.6
20260509232510 87 107 2.0 4.0 0.00 0.00 0.00 68 1008.5
20260509232010 87 138 1.0 4.0 0.00 0.00 0.00 67 1008.5
20260509231010 88 66 0.0 1.0 0.00 0.00 0.00 67 1008.6
20260509230510 88 66 0.0 0.0 0.00 0.00 0.00 66 1008.5
20260509230010 88 66 0.0 2.0 0.00 0.00 0.00 65 1008.4
20260509225510 88 67 0.0 3.0 0.00 0.00 0.00 63 1008.3
20260509225010 88 68 0.0 3.0 0.00 0.00 0.00 63 1008.4
20260509224010 88 144 1.0 3.0 0.00 0.00 0.00 65 1008.4
20260509223010 88 152 1.0 2.0 0.00 0.00 0.00 66 1008.3
20260509222510 88 152 0.0 2.0 0.00 0.00 0.00 65 1008.2
20260509222010 88 192 0.0 2.0 0.00 0.00 0.00 65 1008.2
20260509221510 89 192 1.0 4.0 0.00 0.00 0.00 65 1008.2
20260509215511 89 183 1.0 3.0 0.00 0.00 0.00 64 1008.2
20260509215011 89 71 2.0 3.0 0.00 0.00 0.00 63 1008.3
20260509214511 90 70 1.0 3.0 0.00 0.00 0.00 64 1008.4
20260509214011 90 23 1.0 3.0 0.00 0.00 0.00 64 1008.3
20260509213511 90 328 0.0 4.0 0.00 0.00 0.00 64 1008.3
20260509212511 89 71 2.0 4.0 0.00 0.00 0.00 66 1008.4
20260509212011 89 89 1.0 3.0 0.00 0.00 0.00 66 1008.5
20260509211511 89 68 1.0 4.0 0.00 0.00 0.00 65 1008.4
20260509211011 90 79 2.0 4.0 0.00 0.00 0.00 65 1008.4
20260509210511 90 102 2.0 3.0 0.00 0.00 0.00 64 1008.5
20260509210011 90 79 1.0 6.0 0.00 0.00 0.00 66 1008.5
20260509205511 90 182 2.0 7.0 0.00 0.00 0.00 66 1008.7
20260509204511 90 3 0.0 4.0 0.00 0.00 0.00 67 1008.8
20260509204011 90 348 0.0 4.0 0.00 0.00 0.00 65 1008.8
20260509203511 90 82 1.0 4.0 0.00 0.00 0.00 67 1008.9
20260509203011 90 136 1.0 2.0 0.00 0.00 0.00 67 1008.9
20260509202511 90 140 2.0 2.0 0.00 0.00 0.00 66 1009.0
20260509201011 89 144 3.0 4.0 0.00 0.00 0.00 67 1009.2
20260509200011 89 88 0.0 4.0 0.00 0.00 0.00 67 1009.4
20260509195511 89 265 1.0 4.0 0.00 0.00 0.00 69 1009.3
20260509195011 89 173 2.0 3.0 0.00 0.00 0.00 70 1009.5
20260509194511 88 71 0.0 0.0 0.00 0.00 0.00 68 1009.4
20260509194011 88 126 0.0 0.0 0.00 0.00 0.00 70 1009.4
20260509193511 87 79 0.0 0.0 0.00 0.00 0.00 69 1009.5
20260509193011 87 27 0.0 0.0 0.00 0.00 0.00 69 1009.6
20260509192511 88 192 0.0 3.0 0.00 0.00 0.00 70 1009.7
20260509192011 88 192 0.0 3.0 0.00 0.00 0.00 70 1009.7
20260509191511 88 322 0.0 4.0 0.00 0.00 0.00 70 1009.7
20260509190510 87 154 1.0 5.0 0.00 0.00 0.00 70 1009.6
20260509190010 87 151 2.0 4.0 0.00 0.00 0.00 70 1009.6
20260509185510 87 134 1.0 4.0 0.00 0.00 0.00 70 1009.7
20260509185010 87 114 1.0 4.0 0.00 0.00 0.00 70 1009.9
20260509184511 87 129 0.0 4.0 0.00 0.00 0.00 72 1010.0
20260509184011 87 192 0.0 2.0 0.00 0.00 0.00 71 1010.1
20260509183010 86 163 0.0 3.0 0.00 0.00 0.00 74 1010.2
20260509182510 86 136 1.0 5.0 0.00 0.00 0.00 74 1010.2
20260509182011 86 202 0.0 5.0 0.00 0.00 0.00 75 1010.3
20260509181510 85 181 0.0 4.0 0.00 0.00 0.00 76 1010.3
20260509181011 85 164 1.0 4.0 0.00 0.00 0.00 76 1010.5
20260509180511 85 150 3.0 3.0 0.00 0.00 0.00 76 1010.5
20260509180010 85 284 0.0 2.0 0.00 0.00 0.00 77 1010.7
20260509175510 85 296 0.0 4.0 0.00 0.00 0.00 77 1010.9
20260509175011 85 240 0.0 4.0 0.00 0.00 0.00 77 1011.2
20260509174511 85 172 0.0 4.0 0.00 0.00 0.00 78 1011.1
20260509174011 84 119 0.0 6.0 0.00 0.00 0.00 79 1011.2
20260509173510 84 118 0.0 6.0 0.00 0.00 0.00 79 1011.1
20260509173010 84 196 0.0 5.0 0.00 0.00 0.00 80 1011.1
20260509172510 84 111 1.0 7.0 0.00 0.00 0.00 80 1011.1
20260509172010 84 158 3.0 7.0 0.00 0.00 0.00 80 1010.9
20260509171511 84 183 2.0 7.0 0.00 0.00 0.00 80 1010.8
20260509171010 84 138 1.0 5.0 0.00 0.00 0.00 80 1010.6
20260509170010 82 147 2.0 4.0 0.00 0.00 0.00 82 1010.8
20260509165010 81 139 0.0 3.0 0.00 0.00 0.00 85 1010.8
20260509164510 81 153 0.0 4.0 0.00 0.00 0.00 85 1010.9
20260509164010 80 93 0.0 4.0 0.00 0.00 0.00 85 1011.0
20260509163010 80 153 0.0 5.0 0.00 0.00 0.00 86 1010.9
20260509162510 80 193 0.0 5.0 0.00 0.00 0.00 86 1011.0
20260509162010 80 163 0.0 3.0 0.00 0.00 0.00 87 1011.1
20260509161510 80 323 0.0 3.0 0.00 0.00 0.00 86 1011.1
20260509160510 80 191 0.0 3.0 0.00 0.00 0.00 87 1011.2
20260509160010 79 13 2.0 3.0 0.00 0.00 0.00 87 1011.2
20260509155510 79 217 0.0 0.0 0.00 0.00 0.00 88 1011.3
20260509155010 79 102 0.0 0.0 0.00 0.00 0.00 88 1011.4
20260509154510 79 85 0.0 0.0 0.00 0.00 0.00 89 1011.6
20260509154010 78 349 0.0 0.0 0.00 0.00 0.00 89 1011.6
20260509153511 78 349 0.0 2.0 0.00 0.00 0.00 90 1011.5
20260509153011 78 349 0.0 2.0 0.00 0.00 0.00 90 1011.6
20260509152011 78 344 0.0 2.0 0.00 0.00 0.00 91 1011.6
20260509151511 78 80 0.0 1.0 0.00 0.00 0.00 92 1011.5
20260509150511 77 38 0.0 0.0 0.00 0.00 0.00 93 1011.5
20260509150011 77 38 0.0 0.0 0.00 0.00 0.00 94 1011.4
20260509145511 77 38 0.0 0.0 0.00 0.00 0.00 94 1011.3
20260509145011 76 38 0.0 0.0 0.00 0.00 0.00 95 1011.1
20260509144511 76 13 0.0 0.0 0.00 0.00 0.00 95 1011.0
20260509143511 76 13 0.0 0.0 0.00 0.00 0.00 95 1010.9
20260509143011 76 13 0.0 0.0 0.00 0.00 0.00 95 1010.8
20260509142511 76 13 0.0 0.0 0.00 0.00 0.00 96 1010.8
20260509142011 76 13 0.0 0.0 0.00 0.00 0.00 96 1010.7
20260509141511 75 13 0.0 0.0 0.00 0.00 0.00 96 1010.6
20260509141011 75 13 0.0 0.0 0.00 0.00 0.00 96 1010.5
20260509140511 75 13 0.0 0.0 0.00 0.00 0.00 96 1010.6
20260509140011 75 13 0.0 0.0 0.00 0.00 0.00 96 1010.6
20260509135511 75 13 0.0 0.0 0.00 0.00 0.00 96 1010.6
20260509135011 75 13 0.0 0.0 0.00 0.00 0.00 96 1010.7
20260509134512 75 319 0.0 0.0 0.00 0.00 0.00 96 1010.6
20260509134011 75 310 0.0 0.0 0.00 0.00 0.00 96 1010.9
20260509133511 75 310 0.0 0.0 0.00 0.00 0.00 96 1011.1
20260509133011 75 310 0.0 0.0 0.00 0.00 0.00 97 1011.4
20260509132510 75 356 0.0 0.0 0.00 0.00 0.00 97 1011.4
20260509132011 74 132 0.0 0.0 0.00 0.00 0.00 97 1011.3
20260509131011 74 151 0.0 2.0 0.00 0.00 0.00 97 1011.2
20260509130511 74 158 0.0 2.0 0.00 0.00 0.00 97 1011.3
20260509130011 74 323 0.0 0.0 0.00 0.00 0.00 97 1011.5
20260509125510 74 323 0.0 0.0 0.00 0.00 0.00 97 1011.6
20260509125011 74 323 0.0 0.0 0.00 0.00 0.00 97 1011.7
20260509124010 74 323 0.0 0.0 0.00 0.00 0.00 96 1011.6
20260509123511 74 323 0.0 0.0 0.00 0.00 0.00 97 1011.5
20260509123011 73 323 0.0 0.0 0.00 0.00 0.00 97 1011.5
20260509122010 73 323 0.0 0.0 0.00 0.00 0.00 97 1011.2
20260509121510 73 323 0.0 0.0 0.00 0.00 0.00 97 1011.1
20260509120511 73 323 0.0 0.0 0.00 0.00 0.00 96 1010.8
20260509120011 73 323 0.0 0.0 0.00 0.00 0.00 96 1010.4
20260509115511 73 323 0.0 0.0 0.00 0.00 0.00 96 1010.1
20260509115010 73 323 0.0 0.0 0.00 0.00 0.00 96 1010.3
20260509114510 73 323 0.0 0.0 0.00 0.00 0.00 96 1010.6
20260509114010 73 323 0.0 0.0 0.00 0.00 0.00 96 1010.7
20260509113510 73 323 0.0 0.0 0.00 0.00 0.00 96 1010.7
20260509113010 73 325 0.0 0.0 0.00 0.00 0.00 96 1010.9
20260509112510 73 325 0.0 0.0 0.00 0.00 0.00 96 1010.9
20260509112010 73 325 0.0 0.0 0.00 0.00 0.00 96 1010.9
20260509111510 73 325 0.0 0.0 0.00 0.00 0.00 96 1010.9
20260509111010 73 325 0.0 0.0 0.00 0.00 0.00 96 1011.1
20260509110510 73 325 0.0 0.0 0.00 0.00 0.00 96 1011.2
20260509110010 73 325 0.0 0.0 0.00 0.00 0.00 96 1011.2
20260509105510 73 325 0.0 0.0 0.00 0.00 0.00 96 1011.1
20260509105010 73 325 0.0 0.0 0.00 0.00 0.00 96 1011.0
20260509104010 73 325 0.0 3.0 0.00 0.00 0.00 96 1011.0
20260509103511 73 329 0.0 4.0 0.00 0.00 0.00 96 1011.1
20260509103010 73 317 1.0 4.0 0.00 0.00 0.00 96 1011.0
20260509102510 73 319 2.0 4.0 0.00 0.00 0.00 96 1010.9
20260509102010 73 344 0.0 0.0 0.00 0.00 0.00 96 1010.6
20260509101510 73 344 0.0 0.0 0.00 0.00 0.00 96 1010.2
20260509100510 73 344 0.0 0.0 0.00 0.00 0.00 96 1009.9
20260509095010 73 344 0.0 0.0 0.00 0.00 0.00 96 1009.4
20260509094510 73 344 0.0 0.0 0.00 0.00 0.00 96 1009.5
20260509094010 74 344 0.0 0.0 0.00 0.00 0.00 96 1009.8
20260509093510 74 344 0.0 0.0 0.00 0.00 0.00 96 1010.2
20260509093010 74 344 0.0 0.0 0.00 0.00 0.00 96 1010.3
20260509092010 74 344 0.0 0.0 0.00 0.00 0.00 96 1010.6
20260509091010 74 344 0.0 0.0 0.00 0.00 0.00 96 1010.5
20260509090510 74 344 0.0 0.0 0.00 0.00 0.00 96 1010.6
20260509090011 74 344 0.0 0.0 0.00 0.00 0.00 96 1010.6
20260509085511 74 344 0.0 0.0 0.00 0.00 0.00 96 1010.6
20260509085011 74 344 0.0 0.0 0.00 0.00 0.00 96 1010.7
20260509084511 74 344 0.0 0.0 0.00 0.00 0.00 96 1010.7
20260509084011 74 344 0.0 0.0 0.00 0.00 0.00 96 1010.7
20260509083511 74 129 0.0 0.0 0.00 0.00 0.00 96 1010.5
20260509083011 74 129 0.0 0.0 0.00 0.00 0.00 96 1010.4
20260509082511 74 129 0.0 0.0 0.00 0.00 0.00 96 1010.6
20260509082011 74 129 0.0 0.0 0.00 0.00 0.00 96 1010.4
20260509081511 74 129 0.0 0.0 0.00 0.00 0.00 96 1010.3
20260509080511 74 129 0.0 0.0 0.00 0.00 0.00 96 1010.3
20260509080011 74 129 0.0 0.0 0.00 0.00 0.00 96 1010.3
20260509075511 74 129 0.0 0.0 0.00 0.00 0.00 95 1010.4
20260509074011 74 129 0.0 0.0 0.00 0.00 0.00 95 1010.3
20260509073511 74 129 0.0 0.0 0.00 0.00 0.00 95 1010.4
20260509073011 74 129 0.0 0.0 0.00 0.00 0.00 95 1010.6
20260509072011 74 134 0.0 0.0 0.00 0.00 0.00 95 1010.6
20260509071511 74 134 0.0 0.0 0.00 0.00 0.00 95 1010.7
20260509071011 74 134 0.0 0.0 0.00 0.00 0.00 95 1010.8
20260509070511 74 146 0.0 0.0 0.00 0.00 0.00 95 1010.8
20260509070011 74 146 0.0 0.0 0.00 0.00 0.00 95 1010.6
20260509065511 74 152 0.0 0.0 0.00 0.00 0.00 95 1010.7
20260509065011 74 152 0.0 0.0 0.00 0.00 0.00 95 1010.9
20260509064511 74 152 0.0 0.0 0.00 0.00 0.00 95 1010.9
20260509064011 74 152 0.0 0.0 0.00 0.00 0.00 95 1010.8
20260509063511 74 152 0.0 0.0 0.00 0.00 0.00 95 1010.8
20260509063011 74 152 0.0 0.0 0.00 0.00 0.00 95 1010.8
20260509062510 74 152 0.0 0.0 0.00 0.00 0.00 95 1010.9
20260509062010 74 152 0.0 0.0 0.00 0.00 0.00 95 1011.0
20260509061511 74 152 0.0 0.0 0.00 0.00 0.00 95 1011.1